Flag for Mauritania Weather past 2 weeks in Nouakchott, Mauritania

Now
75 °F

Light rain. Passing clouds.


Feels Like: 74 °F
Forecast: 82 / 88 °F
Wind: 6 mph from West

Location: Nouakchott Airport

Current Time: Aug 21, 2014 at 2:31:50 AM

Latest Report: Aug 21, 2014 at 2:00 AM


Visibility: 4 mi

Pressure: 29.95 "Hg

Humidity: 94%

Dew point: 73 °F

Location of NouakchottLocation

Historic Weather in Nouakchott — Graph

°F

Nouakchott temperature yesterday

Maximum temperature yesterday: 93 °F (at 12:30 PM)
Minimum temperature yesterday: 77 °F (at 11:30 PM)
Average temperature yesterday: 84 °F

Past Weeks' High & Low Weather Summary

 TemperatureHumidityPressure
High93 °F (Aug 10, 2:00 PM)100% (Aug 6, 2:30 AM)30.07 "Hg (Aug 6, 2:30 AM)
Low75 °F (Aug 15, 3:30 AM)41% (Aug 11, 1:30 PM)29.74 "Hg (Aug 17, 4:30 PM)
Average82 °F73%29.85 "Hg
* Reported Aug 6 1:00 AM — Aug 21 1:30 AM, Nouakchott, Weather by CustomWeather, © 2014

Note: Actual official high and low records may vary slightly from our data, if they occured in-between our weather recording intervals... More about our weather records

Advertising

Nouakchott weather history for previous 24 hours

 ConditionsComfort  
Time TempWeatherWind HumidityBarometerVisibility
1:30 AM
Aug 21
75 °FThunderstorms. Overcast.3 mph94%29.95 "Hg4 mi
1:00 AM75 °FThunderstorms. Overcast.2 mph89%29.98 "Hg4 mi
12:30 AM75 °FThunderstorms. Mostly cloudy.6 mph94%30.01 "Hg4 mi
12:00 AM75 °FThunderstorms. Overcast.6 mph94%30.04 "Hg2 mi
11:30 PM
Aug 20
77 °FStrong thunderstorms. Partly cloudy.23 mph89%30.07 "Hg1 mi
11:00 PM82 °FThunderstorms. Partly cloudy.8 mph79%29.98 "Hg4 mi
10:30 PM82 °FThunderstorms. Passing clouds.10 mph79%29.95 "Hg4 mi
10:00 PM82 °FThunderstorms. Passing clouds.9 mph79%29.92 "Hg4 mi
9:30 PM82 °FPassing clouds.8 mph79%29.95 "Hg4 mi
9:00 PM82 °FPassing clouds.9 mph79%29.92 "Hg4 mi
8:30 PM82 °FPassing clouds.12 mph79%29.89 "Hg4 mi
8:00 PM84 °FPassing clouds.9 mph74%29.89 "Hg4 mi
7:30 PM84 °FPassing clouds.8 mph74%29.89 "Hg5 mi
7:00 PM86 °FScattered clouds.9 mph66%29.86 "Hg5 mi
6:30 PM86 °FScattered clouds.13 mph66%29.86 "Hg5 mi
6:00 PM86 °FScattered clouds.12 mph70%29.86 "Hg5 mi
5:30 PM88 °FScattered clouds.13 mph66%29.83 "Hg5 mi
5:00 PM88 °FScattered clouds.13 mph62%29.83 "Hg5 mi
4:30 PM90 °FPartly sunny.13 mph59%29.86 "Hg5 mi
4:00 PM90 °FPartly sunny.13 mph59%29.86 "Hg5 mi
3:30 PM91 °FPartly sunny.12 mph56%29.86 "Hg5 mi
3:00 PM91 °FPartly sunny.10 mph56%29.86 "Hg5 mi
2:30 PM90 °FPartly sunny.9 mph59%29.89 "Hg5 mi
2:00 PM90 °FPartly sunny.12 mph59%29.89 "Hg5 mi
1:30 PM90 °FScattered clouds.10 mph59%29.89 "Hg5 mi
1:00 PM93 °FScattered clouds.3 mph49%29.92 "Hg5 mi
12:30 PM93 °FPassing clouds.5 mph47%29.95 "Hg5 mi
12:00 PM90 °FPassing clouds.3 mph55%29.95 "Hg5 mi
11:30 AM90 °FPassing clouds.3 mph55%29.95 "Hg5 mi
11:00 AM88 °FPassing clouds.5 mph59%29.95 "Hg5 mi
10:30 AM86 °FScattered clouds.3 mph62%29.95 "Hg5 mi
10:00 AM82 °FScattered clouds.3 mph70%29.95 "Hg5 mi
9:30 AM84 °FScattered clouds.3 mph66%29.95 "Hg5 mi
9:00 AM82 °FClear.3 mph70%29.95 "Hg5 mi
8:30 AM82 °FClear.1 mph70%29.95 "Hg5 mi
8:00 AM82 °FClear.No wind70%29.95 "Hg5 mi
7:30 AM79 °FClear.2 mph79%29.92 "Hg5 mi
7:00 AM79 °FClear.2 mph79%29.92 "Hg5 mi
6:30 AM79 °FClear.5 mph79%29.92 "Hg5 mi
6:00 AM79 °FClear.5 mph79%29.92 "Hg5 mi
5:30 AM79 °FPassing clouds.3 mph79%29.92 "Hg5 mi
5:00 AM79 °FPassing clouds.3 mph79%29.89 "Hg5 mi
4:30 AM79 °FPassing clouds.1 mph79%29.92 "Hg5 mi
4:00 AM81 °FPassing clouds.2 mph74%29.89 "Hg5 mi
3:30 AM81 °FPassing clouds.3 mph74%29.89 "Hg5 mi
3:00 AM81 °FPassing clouds.5 mph74%29.89 "Hg5 mi
2:30 AM81 °FPassing clouds.3 mph74%29.92 "Hg5 mi
2:00 AM81 °FPassing clouds.3 mph74%29.92 "Hg5 mi
Weather by CustomWeather, © 2014

See weather overviewHow to use our weather pages